Simultaneous Nadir Overpasses (SNOs) Predictions

Prediction of SNOs between METOP-B and NOAA-19 Satellite Orbit:

Table of predicted SNOs for the next 14.0 days since TLE Epoch: 10/25/2012
Index Date (METOP-B) Time (METOP-B) METOP-B Lat,Lon Date (NOAA-19) Time (NOAA-19) NOAA-19 Lat,Lon Distance(km) Time Diff (sec)
1 10/27/2012 03:01:45 -73.65, -51.58 10/27/2012 03:00:35 -73.67, -53.69 66.07 70
2 10/27/2012 03:52:34 73.21, 114.75 10/27/2012 03:51:24 73.20, 114.64 3.41 70
3 10/27/2012 04:43:16 -73.19, -77.97 10/27/2012 04:42:30 -73.18, -78.07 3.60 46
4 10/27/2012 05:33:57 73.15, 89.26 10/27/2012 05:33:28 73.16, 89.23 1.50 29
5 10/27/2012 06:24:39 -73.13,-103.46 10/27/2012 06:24:34 -73.13,-103.48 0.92 5
6 10/27/2012 07:15:19 73.13, 63.89 10/27/2012 07:15:32 73.11, 63.82 3.35 13
7 10/27/2012 08:06:02 -73.06,-128.94 10/27/2012 08:06:38 -73.08,-128.90 2.49 36
8 10/27/2012 08:56:42 73.06, 38.40 10/27/2012 08:57:36 73.06, 38.41 0.56 54
9 10/27/2012 09:47:27 -72.89,-154.63 10/27/2012 09:48:40 -72.93,-154.09 18.18 73
10 11/06/2012 02:55:15 -73.23, -50.85 11/06/2012 02:54:00 -73.24, -51.07 7.19 75
11 11/06/2012 03:45:56 73.16, 116.33 11/06/2012 03:44:56 73.15, 116.40 2.17 60
12 11/06/2012 04:36:38 -73.17, -76.32 11/06/2012 04:36:03 -73.15, -76.37 2.64 35
13 11/06/2012 05:27:18 73.15, 90.97 11/06/2012 05:27:01 73.16, 90.87 3.35 17
14 11/06/2012 06:18:01 -73.11,-101.80 11/06/2012 06:18:07 -73.10,-101.79 0.50 6
15 11/06/2012 07:08:41 73.09, 65.49 11/06/2012 07:09:05 73.11, 65.45 3.18
